Regional Weather Roundup
Issued by NWS Sterling, VA

Home | Current Version | Previous Version | Graphics & Text | Print | Product List | Glossary On
Versions: 1 2 3 4 5 6 7 8 9 10 11 12 13 14 15 16 17 18 19 20 21 22 23 24 25 26 27 28 29 30 31 32 33 34 35 36 37 38 39 40 41 42 43 44 45 46 47 48 49 50
000
ASUS41 KLWX 281111
RWRLWX

REGIONAL WEATHER ROUNDUP
NATIONAL WEATHER SERVICE BALTIMORE MD/WASHINGTON DC
700 AM EDT TUE MAR 28 2017

Note: "FAIR" indicates few or no clouds below 12,000 feet
with no significant weather and/or obstructions to visibility.
 TC=TEMPERATURE CELSIUS

 * =Non NWS site. Station does not report precipitation (e.g. rain,
    snow, etc.), thunder, or fog.

DCZ001-MDZ009-015-VAZ040>042-051-053>054-281200-
WASHINGTON METRO

CITY           SKY/WX    TMP DP  RH WIND       PRES   REMARKS
WASHINGTON NAT MOCLDY    61  57  87 S3        29.85R
DULLES         MOCLDY    55  54  96 CALM      29.84S
ANDREWS AFB    CLOUDY    63  56  79 S6        29.84R
FT BELVOIR     CLOUDY    62  56  81 CALM      29.85R
QUANTICO       MOCLDY    59  56  89 SW10      29.86R
COLLEGE PARK*  CLOUDY    55  54  94 CALM      29.85S
LEESBURG*      MOCLDY    55  55 100 NE3       29.85S FOG
MANASSAS*        N/A    N/A N/A N/A CALM      29.85R

$$

MDZ006>007-011-014-281200-
BALTIMORE METRO

CITY           SKY/WX    TMP DP  RH WIND       PRES   REMARKS
BWI AIRPORT    CLOUDY    54  54 100 E6        29.86R
MD SCIENCE CTR   N/A     57  53  86 MISG      29.87R
ANNAPOLIS      MOCLDY    54  52  93 SE5       29.86R
FORT MEADE*    CLOUDY    52  52 100 CALM      29.88S

$$

MDZ012-015-019>023-281200-
MARYLAND EASTERN SHORE

CITY           SKY/WX    TMP DP  RH WIND       PRES   REMARKS
OCEAN CITY     CLOUDY    53  50  89 S9        29.91S
SALISBURY      CLOUDY    60  55  83 S8        29.89S
BAY BRIDGE AP* CLOUDY    57  54  88 SE6       29.86S
CAMBRIDGE*     MOCLDY    57  54  88 SE7       29.88R
EASTON*        MOCLDY    61  54  77 S6        29.90S

$$

MDZ017>025-281200-
SOUTHERN MARYLAND

CITY           SKY/WX    TMP DP  RH WIND       PRES   REMARKS
PATUXENT RIVER CLOUDY    63  57  81 S8        29.87R
ST INIGOES     MOCLDY    62  55  77 S6        29.87S
LEONARDTOWN*   CLOUDY    63  54  72 SW6       29.88S

$$

MDZ003>005-281200-
NORTH CENTRAL MARYLAND

CITY           SKY/WX    TMP DP  RH WIND       PRES   REMARKS
FREDERICK*     LGT RAIN  54  54 100 CALM      29.88S
HAGERSTOWN APT CLOUDY    52  50  93 N3        29.84R FOG
WESTMINSTER*   MOCLDY    55  55 100 CALM      29.85R FOG

$$

MDZ501>502-281200-
WESTERN MARYLAND

CITY           SKY/WX    TMP DP  RH WIND       PRES   REMARKS
OAKLAND*       CLOUDY    48  48 100 CALM      29.89R FOG
CUMBERLAND*    CLOUDY    54  54 100 CALM      29.90R

$$

VAZ025>031-281200-
SHENANDOAH VALLEY

CITY           SKY/WX    TMP DP  RH WIND       PRES   REMARKS
WINCHESTER*    CLOUDY    52  50  93 CALM      29.84S FOG
FRONT ROYAL*   CLOUDY    55  55 100 CALM      29.85R
LURAY*         RAIN      55  55 100 CALM      29.86R
NEW MARKET*    CLOUDY    52  51  96 SW3       29.86R
STAUNTON*      RAIN      58  56  92 S9        29.91R
WAYNESBORO*    CLOUDY    58  58 100 S6        29.90R

$$

WVZ021-048>050-054>055-281200-
EASTERN WEST VIRGINIA PANHANDLE

CITY           SKY/WX    TMP DP  RH WIND       PRES   REMARKS
MARTINSBURG    CLOUDY    52  51  97 N5        29.84S FOG
PETERSBURG*    LGT RAIN  54  54  99 CALM      29.88R

$$

VAZ036>039-050-281200-
CENTRAL FOOTHILLS

CITY           SKY/WX    TMP DP  RH WIND       PRES   REMARKS
CHARLOTTESVILL HVY RAIN  62  60  93 S7        29.88R FOG
CULPEPER*      MOCLDY    63  59  88 S5        29.86R
ORANGE*        CLOUDY    61  57  88 SW9       29.88R
GORDONSVILLE*  CLOUDY    60  59  97 SW8       29.87R
WARRENTON*     NOT AVBL

$$

VAZ055>057-281200-
NORTH AND CENTRAL PIEDMONT

CITY           SKY/WX    TMP DP  RH WIND       PRES   REMARKS
FREDERICKSBRG* CLOUDY    64  59  83 S9        29.85S
STAFFORD*      CLOUDY    62  59  90 S5        29.89S

$$

NCZ024-NYZ072-PAZ021-071-VAZ022-071-281200-
OTHER REGIONAL OBSERVATIONS

CITY           SKY/WX    TMP DP  RH WIND       PRES   REMARKS
NEW YORK CITY  CLOUDY    42  41  96 E6        29.98R
PHILADELPHIA   CLOUDY    50  49  96 NE9       29.89F FOG
PITTSBURGH     LGT RAIN  55  55 100 CALM      29.85R
ROANOKE        LGT RAIN  58  57  97 CALM      29.91R
RICHMOND       CLOUDY    61  55  81 S8        29.88S
RALEIGH        CLOUDY    64  55  72 SW13      29.95R

$$

ANZ530>537-281200-
MARINE OBSERVATIONS

STATION/POSITION TIME  TEMP    WIND        PRES
                       AIR SEA DIR/SP/G
                 (UTC) (F)     (DEG/KT/KT) (MB)
THOMAS PT LIGHT  1100   58 46  160/ 14/ 14   N/A
BALT KEY BRIDGE  1042   54      70/  3/  3 1011.1R
COVE POINT       1042   52     200/ 12/ 14 1011.9R
LEWISETTA        1042   62 52  210/  8/  9 1011.4R
SOLOMONS ISLAND  1042   56 47  130/  4/  5   N/A
PINEY POINT      1036          200/  8/  8   N/A

$$




USA.gov is the U.S. government's official web portal to all federal, state and local government web resources and services.